FW5284 Weather Reports


Display with metric or nautical units.
time (UTC)temp
F
wind
direction
speed
MPH
gust
MPH
rain 1hr
in
rain 24hr
in
rain mn
in
humidity
%
barometer
mb
20260902044011 62 261 0.0 0.0 0.00 0.17 0.00 92 1021.1
20260902043513 62 261 0.0 0.0 0.00 0.17 0.00 92 1021.0
20260902043025 62 261 0.0 0.0 0.00 0.17 0.00 91 1020.7
20260902042514 61 261 0.0 0.0 0.00 0.17 0.00 91 1020.6
20260902042015 61 261 0.0 0.0 0.00 0.17 0.00 91 1020.5
20260902041546 61 261 0.0 0.0 0.00 0.17 0.00 91 1020.5
20260902041016 62 261 0.0 0.0 0.00 0.17 0.00 91 1020.4
20260902040516 62 261 0.0 0.0 0.00 0.17 0.00 91 1020.4
20260902040018 62 261 0.0 0.0 0.00 0.17 0.00 91 1020.4
20260902035508 62 261 0.0 0.0 0.00 0.17 0.17 91 1020.4
20260902035007 62 261 0.0 0.0 0.00 0.17 0.17 91 1020.4
20260902034520 62 261 0.0 0.0 0.00 0.17 0.17 91 1020.5
20260902034012 62 261 0.0 0.0 0.00 0.17 0.17 91 1020.4
20260902033510 62 261 0.0 0.0 0.00 0.17 0.17 91 1020.4
20260902033026 62 261 0.0 0.0 0.00 0.17 0.17 91 1020.4
20260902032513 62 261 0.0 0.0 0.00 0.17 0.17 90 1020.3
20260902032015 62 261 0.0 0.0 0.00 0.17 0.17 90 1020.3
20260902031527 62 261 0.0 0.0 0.00 0.17 0.17 90 1020.4
20260902031016 62 261 0.0 0.0 0.00 0.17 0.17 90 1020.4
20260902030516 62 261 0.0 0.0 0.00 0.17 0.17 89 1020.3
20260902030030 62 261 0.0 0.0 0.00 0.17 0.17 89 1020.2
20260902025506 62 261 0.0 0.0 0.00 0.17 0.17 89 1020.3
20260902025008 62 261 0.0 0.0 0.00 0.17 0.17 89 1020.3
20260902024516 62 261 0.0 0.0 0.00 0.17 0.17 89 1020.3
20260902024009 62 261 0.0 0.0 0.00 0.17 0.17 89 1020.2
20260902023510 62 261 0.0 0.0 0.00 0.17 0.17 89 1020.1
20260902023006 62 261 0.0 0.0 0.00 0.17 0.17 89 1020.2
20260902022503 62 261 0.0 0.0 0.00 0.17 0.17 89 1020.4
20260902022005 62 261 0.0 0.0 0.00 0.17 0.17 89 1020.4
20260902021506 62 261 0.0 0.0 0.00 0.17 0.17 88 1020.4
20260902021004 62 261 0.0 0.0 0.00 0.17 0.17 88 1020.3
20260902020501 62 261 0.0 0.0 0.00 0.17 0.17 88 1020.3
20260902020006 62 261 0.0 0.0 0.00 0.17 0.17 87 1020.3
20260902015503 62 261 0.0 0.0 0.00 0.17 0.17 87 1020.3
20260902015007 62 261 0.0 0.0 0.00 0.17 0.17 87 1020.3
20260902014520 63 261 0.0 0.0 0.00 0.17 0.17 87 1020.3
20260902014008 63 261 0.0 0.0 0.00 0.17 0.17 87 1020.4
20260902013506 63 261 0.0 0.0 0.00 0.17 0.17 87 1020.4
20260902013019 63 261 0.0 0.0 0.00 0.17 0.17 88 1020.4
20260902012507 63 261 0.0 0.0 0.00 0.17 0.17 87 1020.4
20260902012014 63 261 0.0 1.0 0.00 0.17 0.17 87 1020.4
20260902011523 63 261 0.0 2.0 0.00 0.17 0.17 87 1020.3
20260902011003 63 261 0.0 2.0 0.00 0.17 0.17 87 1020.3
20260902010502 63 261 0.0 4.0 0.00 0.17 0.17 88 1020.4
20260902010005 63 253 0.0 4.0 0.00 0.17 0.17 88 1020.4
20260902005504 63 250 0.0 4.0 0.00 0.17 0.17 89 1020.4
20260902005003 64 266 1.0 5.0 0.00 0.17 0.17 90 1020.3
20260902004514 64 230 2.0 5.0 0.00 0.17 0.17 90 1020.3
20260902004006 64 276 1.0 4.0 0.00 0.17 0.17 90 1020.3
20260902003506 64 235 1.0 4.0 0.00 0.17 0.17 90 1020.2
20260902003040 64 241 1.0 4.0 0.00 0.17 0.17 90 1020.1
20260902002506 64 249 0.0 4.0 0.00 0.17 0.17 90 1020.1
20260902002010 64 227 1.0 4.0 0.00 0.17 0.17 89 1019.9
20260902001521 64 177 0.0 3.0 0.00 0.17 0.17 89 1019.8
20260902001011 64 226 0.0 2.0 0.00 0.17 0.17 89 1020.0
20260902000512 64 213 0.0 4.0 0.00 0.17 0.17 89 1020.0
20260902000032 64 225 1.0 4.0 0.00 0.17 0.17 89 1019.9
20260901235503 64 224 0.0 3.0 0.00 0.17 0.17 89 1019.8
20260901235003 64 183 0.0 2.0 0.00 0.17 0.17 89 1019.8
20260901234504 64 179 0.0 4.0 0.00 0.17 0.17 89 1019.7
20260901234003 65 234 1.0 4.0 0.00 0.17 0.17 88 1019.5
20260901233502 65 213 1.0 5.0 0.00 0.17 0.17 88 1019.5
20260901233010 65 172 1.0 5.0 0.00 0.17 0.17 88 1019.5
20260901232509 65 190 1.0 5.0 0.00 0.17 0.17 88 1019.7
20260901232008 65 217 1.0 5.0 0.00 0.17 0.17 87 1019.8
20260901231516 65 218 2.0 5.0 0.00 0.17 0.17 87 1019.9
20260901231009 65 235 2.0 5.0 0.00 0.17 0.17 87 1019.9
20260901230512 65 237 1.0 6.0 0.00 0.17 0.17 87 1019.8
20260901230023 65 206 3.0 6.0 0.00 0.17 0.17 86 1019.8
20260901225511 65 235 3.0 6.0 0.00 0.17 0.17 86 1019.7
20260901225011 66 249 2.0 6.0 0.00 0.17 0.17 86 1019.7
20260901224530 66 244 1.0 6.0 0.00 0.17 0.17 86 1019.7
20260901224003 66 230 1.0 5.0 0.00 0.17 0.17 86 1019.6
20260901223503 66 276 0.0 5.0 0.00 0.17 0.17 86 1019.6
20260901223007 66 281 2.0 5.0 0.00 0.17 0.17 86 1019.5
20260901222503 66 250 1.0 5.0 0.00 0.17 0.17 87 1019.5
20260901222007 66 140 0.0 5.0 0.00 0.17 0.17 87 1019.4
20260901221514 67 244 1.0 4.0 0.00 0.17 0.17 87 1019.2
20260901221006 67 184 1.0 5.0 0.00 0.17 0.17 87 1019.1
20260901220510 67 193 2.0 5.0 0.00 0.17 0.17 86 1019.2
20260901220034 67 248 2.0 6.0 0.00 0.17 0.17 87 1019.3
20260901215512 67 245 1.0 6.0 0.00 0.17 0.17 86 1019.2
20260901215014 67 233 3.0 6.0 0.00 0.17 0.17 86 1019.1
20260901214528 67 241 1.0 5.0 0.00 0.17 0.17 85 1019.2
20260901214013 67 213 2.0 5.0 0.00 0.17 0.17 85 1019.3
20260901213513 68 226 2.0 6.0 0.00 0.17 0.17 85 1019.3
20260901213031 68 167 2.0 6.0 0.00 0.17 0.17 84 1019.4
20260901212516 68 162 1.0 5.0 0.00 0.17 0.17 83 1019.3
20260901212003 68 235 3.0 5.0 0.00 0.17 0.17 83 1019.1
20260901211511 68 204 2.0 5.0 0.00 0.17 0.17 83 1019.1
20260901211003 68 216 2.0 5.0 0.00 0.17 0.17 83 1019.1
20260901210510 68 170 1.0 4.0 0.00 0.17 0.17 84 1019.2
20260901210018 68 247 1.0 4.0 0.00 0.17 0.17 84 1019.0
20260901205509 68 196 1.0 4.0 0.00 0.17 0.17 84 1018.9
20260901205015 68 219 0.0 4.0 0.00 0.17 0.17 84 1019.1
20260901204527 68 117 1.0 4.0 0.00 0.17 0.17 84 1019.1
20260901204011 68 256 1.0 5.0 0.00 0.17 0.17 84 1019.1
20260901203512 68 236 1.0 5.0 0.00 0.17 0.17 84 1018.8
20260901203033 68 232 1.0 5.0 0.00 0.17 0.17 84 1018.7
20260901202513 68 225 0.0 4.0 0.00 0.17 0.17 84 1018.7
20260901202012 68 116 1.0 4.0 0.00 0.17 0.17 84 1018.7
20260901201527 68 120 1.0 3.0 0.00 0.17 0.17 84 1018.6
20260901201016 68 179 1.0 5.0 0.00 0.17 0.17 84 1018.6
20260901200503 68 155 1.0 5.0 0.00 0.17 0.17 84 1018.7
20260901200014 68 213 1.0 5.0 0.00 0.17 0.17 83 1018.7
20260901195506 68 243 2.0 5.0 0.00 0.17 0.17 84 1018.8
20260901195008 67 208 1.0 7.0 0.00 0.17 0.17 84 1018.8
20260901194520 67 239 2.0 7.0 0.00 0.17 0.17 83 1018.7
20260901194012 67 168 2.0 6.0 0.00 0.17 0.17 84 1018.7
20260901193510 67 147 1.0 5.0 0.00 0.17 0.17 84 1018.8
20260901193027 67 174 2.0 5.0 0.00 0.17 0.17 83 1018.8
20260901192513 67 209 2.0 4.0 0.00 0.17 0.17 83 1018.7
20260901192015 67 186 0.0 4.0 0.00 0.17 0.17 83 1018.7
20260901191535 67 148 0.0 4.0 0.00 0.17 0.17 82 1018.8
20260901191012 67 177 0.0 3.0 0.00 0.17 0.17 82 1018.9
20260901190514 67 185 1.0 3.0 0.00 0.17 0.17 82 1018.9
20260901190031 67 157 1.0 5.0 0.00 0.17 0.17 82 1018.9
20260901185516 67 146 1.0 5.0 0.00 0.17 0.17 82 1018.9
20260901185008 67 169 0.0 4.0 0.00 0.17 0.17 82 1018.9
20260901184516 67 124 0.0 3.0 0.00 0.17 0.17 82 1018.9
20260901184010 67 152 0.0 3.0 0.00 0.17 0.17 83 1018.9
20260901183508 67 102 0.0 4.0 0.00 0.17 0.17 82 1018.9
20260901183022 67 56 0.0 4.0 0.00 0.17 0.17 82 1018.8
20260901182510 67 74 1.0 4.0 0.00 0.17 0.17 82 1018.8
20260901182012 67 155 2.0 4.0 0.00 0.17 0.17 81 1018.8
20260901181532 66 123 0.0 6.0 0.00 0.17 0.17 81 1018.7
20260901181014 66 169 2.0 6.0 0.00 0.17 0.17 81 1018.7
20260901180516 66 165 1.0 3.0 0.00 0.17 0.17 82 1018.7
20260901180032 66 140 1.0 4.0 0.00 0.17 0.17 83 1018.6
20260901175504 66 151 1.0 4.0 0.00 0.17 0.17 84 1018.6
20260901175004 66 73 1.0 3.0 0.00 0.17 0.17 85 1018.7
20260901174513 65 36 1.0 3.0 0.00 0.17 0.17 84 1018.6
20260901174008 65 72 0.0 4.0 0.00 0.17 0.17 86 1018.5
20260901173508 65 169 2.0 4.0 0.00 0.17 0.17 86 1018.4
20260901173018 64 167 0.0 3.0 0.00 0.17 0.17 87 1018.3
20260901172512 64 139 0.0 4.0 0.00 0.17 0.17 88 1018.5
20260901172012 64 167 1.0 4.0 0.00 0.17 0.17 88 1018.5
20260901171507 63 139 1.0 5.0 0.00 0.17 0.17 88 1018.4
20260901171004 63 74 2.0 5.0 0.00 0.17 0.17 88 1018.4
20260901170502 63 167 0.0 3.0 0.00 0.17 0.17 89 1018.3
20260901170004 62 86 1.0 3.0 0.00 0.17 0.17 89 1018.4
20260901165503 62 167 0.0 3.0 0.00 0.17 0.17 89 1018.4
20260901165005 62 129 0.0 3.0 0.00 0.17 0.17 89 1018.5
20260901164510 62 122 0.0 3.0 0.00 0.17 0.17 89 1018.5
20260901164005 61 120 0.0 3.0 0.00 0.17 0.17 90 1018.6
20260901163510 61 113 0.0 0.0 0.00 0.17 0.17 90 1018.6
20260901163034 61 113 0.0 2.0 0.00 0.17 0.17 90 1018.6
20260901162509 61 113 0.0 3.0 0.00 0.17 0.17 91 1018.7
20260901162008 61 119 0.0 4.0 0.00 0.17 0.17 90 1018.8
20260901161523 61 114 1.0 4.0 0.00 0.17 0.17 91 1018.9
20260901161012 61 42 0.0 2.0 0.00 0.17 0.17 92 1018.9
20260901160513 61 21 0.0 0.0 0.00 0.17 0.17 92 1018.9
20260901160007 61 21 0.0 0.0 0.00 0.17 0.17 91 1018.9
20260901155503 61 21 0.0 0.0 0.00 0.17 0.17 91 1019.1
20260901155004 61 21 0.0 0.0 0.00 0.17 0.17 91 1019.2
20260901154509 61 21 0.0 1.0 0.00 0.17 0.17 90 1019.2
20260901154004 61 21 0.0 2.0 0.00 0.17 0.17 89 1019.1
20260901153505 61 21 1.0 2.0 0.00 0.17 0.17 88 1019.1
20260901153023 61 113 0.0 0.0 0.00 0.17 0.17 89 1019.1
20260901152506 61 113 0.0 2.0 0.00 0.17 0.17 88 1018.9
20260901152007 61 118 0.0 2.0 0.00 0.17 0.17 89 1018.8
20260901151518 61 115 0.0 4.0 0.00 0.17 0.17 88 1018.7
20260901151010 61 91 0.0 4.0 0.00 0.17 0.17 88 1018.5
20260901150509 61 117 1.0 4.0 0.00 0.17 0.17 89 1018.7
20260901150032 61 203 2.0 4.0 0.00 0.17 0.17 90 1018.7
20260901145514 61 180 0.0 2.0 0.00 0.17 0.17 91 1018.7
20260901145014 61 164 0.0 3.0 0.00 0.17 0.17 91 1018.8
20260901144510 61 165 0.0 3.0 0.00 0.17 0.17 91 1018.9
20260901144004 61 124 1.0 3.0 0.00 0.17 0.17 92 1018.7
20260901143504 61 191 1.0 3.0 0.00 0.17 0.17 92 1018.7
20260901143008 60 82 0.0 0.0 0.00 0.17 0.17 93 1018.7
20260901142503 60 82 0.0 0.0 0.00 0.17 0.17 93 1018.7
20260901142004 60 82 0.0 0.0 0.00 0.17 0.17 93 1018.7
20260901141517 60 84 0.0 0.0 0.00 0.17 0.17 93 1018.6
20260901141008 60 84 0.0 0.0 0.01 0.17 0.17 93 1018.7
20260901140508 60 84 0.0 2.0 0.01 0.17 0.17 94 1018.8
20260901140021 60 84 0.0 2.0 0.02 0.17 0.17 93 1018.8
20260901135515 59 84 0.0 0.0 0.03 0.17 0.17 93 1018.7
20260901135011 59 84 0.0 0.0 0.03 0.17 0.17 93 1018.5
20260901134527 59 84 0.0 1.0 0.04 0.17 0.17 94 1018.7
20260901134011 59 84 0.0 1.0 0.05 0.17 0.17 93 1018.8
20260901133513 59 84 0.0 1.0 0.06 0.17 0.17 93 1018.7
20260901133031 59 84 0.0 1.0 0.06 0.17 0.17 93 1018.7
20260901132504 59 84 0.0 1.0 0.07 0.17 0.17 93 1018.8
20260901132003 59 84 0.0 0.0 0.08 0.17 0.17 93 1019.0
20260901131510 59 84 0.0 0.0 0.08 0.17 0.17 93 1019.1
20260901131006 59 84 0.0 0.0 0.08 0.16 0.16 93 1019.1
20260901130508 59 84 0.0 0.0 0.08 0.16 0.16 93 1019.2
20260901130018 60 84 0.0 0.0 0.08 0.15 0.15 93 1019.3
20260901125513 60 84 0.0 0.0 0.08 0.14 0.14 93 1019.2
20260901125011 60 84 0.0 0.0 0.09 0.14 0.14 93 1019.2
20260901124524 60 84 0.0 0.0 0.09 0.13 0.13 93 1019.3
20260901124011 60 83 0.0 1.0 0.09 0.12 0.12 93 1019.3
20260901123512 60 83 0.0 1.0 0.09 0.11 0.11 93 1019.3
20260901123027 60 83 0.0 0.0 0.10 0.11 0.11 93 1019.4
20260901122515 60 83 0.0 0.0 0.09 0.10 0.10 93 1019.4
20260901122015 60 83 0.0 0.0 0.09 0.09 0.09 93 1019.4
20260901121538 60 83 0.0 1.0 0.09 0.09 0.09 92 1019.5
20260901121006 60 82 0.0 1.0 0.08 0.08 0.08 92 1019.6
20260901120507 60 82 0.0 0.0 0.08 0.08 0.08 92 1019.5
20260901120012 60 82 0.0 2.0 0.07 0.07 0.07 92 1019.5
20260901115508 60 82 0.0 2.0 0.06 0.06 0.06 92 1019.5
20260901115008 60 82 0.0 1.0 0.05 0.05 0.05 92 1019.6
20260901114522 60 81 0.0 1.0 0.04 0.04 0.04 91 1019.5
20260901114011 60 81 0.0 1.0 0.03 0.03 0.03 91 1019.2
20260901113512 60 81 0.0 1.0 0.02 0.02 0.02 91 1019.1
20260901113027 60 82 0.0 3.0 0.01 0.01 0.01 91 1018.9
20260901112513 60 82 0.0 3.0 0.01 0.01 0.01 91 1018.8
20260901112016 61 82 0.0 3.0 0.00 0.00 0.00 91 1018.9
20260901111527 60 82 0.0 0.0 0.00 0.00 0.00 90 1018.8
20260901111017 60 82 0.0 0.0 0.00 0.00 0.00 90 1018.8
20260901110516 60 82 0.0 0.0 0.00 0.00 0.00 90 1018.6
20260901110030 60 82 0.0 0.0 0.00 0.00 0.00 90 1018.5
20260901105514 60 82 0.0 0.0 0.00 0.00 0.00 90 1018.6
20260901105011 60 82 0.0 0.0 0.00 0.00 0.00 90 1018.7
20260901104531 60 82 0.0 0.0 0.00 0.00 0.00 90 1018.5
20260901104010 60 82 0.0 0.0 0.00 0.00 0.00 90 1018.5
20260901103510 60 82 0.0 0.0 0.00 0.00 0.00 90 1018.5
20260901103030 60 82 0.0 0.0 0.00 0.00 0.00 90 1018.3
20260901102512 60 82 0.0 0.0 0.00 0.00 0.00 90 1018.3
20260901102014 60 82 0.0 0.0 0.00 0.00 0.00 90 1018.3
20260901101524 60 82 0.0 0.0 0.00 0.00 0.00 90 1018.4
20260901101016 60 82 0.0 0.0 0.00 0.00 0.00 90 1018.2
20260901100514 60 79 0.0 0.0 0.00 0.00 0.00 90 1018.2
20260901100030 60 79 0.0 0.0 0.00 0.00 0.00 90 1018.1
20260901095517 60 79 0.0 0.0 0.00 0.00 0.00 90 1018.0
20260901095016 59 117 0.0 0.0 0.00 0.00 0.00 91 1018.1
20260901094531 59 117 0.0 0.0 0.00 0.00 0.00 90 1017.9
20260901094019 59 117 0.0 0.0 0.00 0.00 0.00 90 1017.9
20260901093507 59 117 0.0 0.0 0.00 0.00 0.00 90 1017.9
20260901093019 59 117 0.0 0.0 0.00 0.00 0.00 91 1017.9
20260901092511 59 117 0.0 0.0 0.00 0.00 0.00 91 1018.0
20260901092011 59 117 0.0 0.0 0.00 0.00 0.00 91 1018.0
20260901091533 59 117 0.0 0.0 0.00 0.00 0.00 91 1017.9
20260901091012 59 117 0.0 0.0 0.00 0.00 0.00 91 1017.9
20260901090514 59 117 0.0 0.0 0.00 0.00 0.00 91 1017.9
20260901090044 59 117 0.0 0.0 0.00 0.00 0.00 91 1018.1
20260901085502 59 117 0.0 0.0 0.00 0.00 0.00 91 1018.0
20260901085002 59 117 0.0 0.0 0.00 0.00 0.00 91 1018.0
20260901084506 58 117 0.0 0.0 0.00 0.00 0.00 91 1017.9
20260901084005 58 117 0.0 1.0 0.00 0.00 0.00 91 1017.8
20260901083502 58 117 0.0 1.0 0.00 0.00 0.00 91 1017.9
20260901083004 58 117 0.0 1.0 0.00 0.00 0.00 91 1017.7
20260901082501 59 117 0.0 0.0 0.00 0.00 0.00 91 1017.9
20260901082002 59 117 0.0 0.0 0.00 0.00 0.00 91 1017.9
20260901081503 59 117 0.0 0.0 0.00 0.00 0.00 91 1018.0
20260901081003 59 117 0.0 0.0 0.00 0.00 0.00 91 1017.9
20260901080503 59 117 0.0 0.0 0.00 0.00 0.00 91 1017.9
20260901080012 59 117 0.0 0.0 0.00 0.00 0.00 91 1018.0
20260901075503 59 117 0.0 0.0 0.00 0.00 0.00 91 1018.0
20260901075003 59 117 0.0 0.0 0.00 0.00 0.00 91 1018.0
20260901074506 58 117 0.0 0.0 0.00 0.00 0.00 91 1018.0
20260901074003 58 117 0.0 0.0 0.00 0.00 0.00 91 1018.1
20260901073503 58 117 0.0 0.0 0.00 0.00 0.00 91 1018.2
20260901073012 58 117 0.0 0.0 0.00 0.00 0.00 91 1018.4
20260901072503 58 117 0.0 0.0 0.00 0.00 0.00 91 1018.4
20260901072004 58 117 0.0 0.0 0.00 0.00 0.00 91 1018.2
20260901071502 58 117 0.0 0.0 0.00 0.00 0.00 91 1018.4
20260901071003 58 117 0.0 0.0 0.00 0.00 0.00 91 1018.2
20260901070502 58 117 0.0 0.0 0.00 0.00 0.00 91 1018.1
20260901070004 58 117 0.0 0.0 0.00 0.00 0.00 91 1018.3
20260901065503 58 117 0.0 0.0 0.00 0.00 0.00 91 1018.5
20260901065006 58 117 0.0 0.0 0.00 0.00 0.00 90 1018.5
20260901064504 58 117 0.0 0.0 0.00 0.00 0.00 90 1018.5
20260901064004 58 117 0.0 0.0 0.00 0.00 0.00 90 1018.5
20260901063506 58 117 0.0 0.0 0.00 0.00 0.00 90 1018.6
20260901063004 58 117 0.0 0.0 0.00 0.00 0.00 90 1018.4
20260901062503 58 117 0.0 0.0 0.00 0.00 0.00 90 1018.6
20260901062004 58 117 0.0 0.0 0.00 0.00 0.00 89 1018.6
20260901061506 58 117 0.0 0.0 0.00 0.00 0.00 89 1018.6
20260901061004 59 117 0.0 0.0 0.00 0.00 0.00 89 1018.5
20260901060503 59 117 0.0 0.0 0.00 0.00 0.00 89 1018.5
20260901060006 59 117 0.0 0.0 0.00 0.00 0.00 89 1018.5
20260901055506 59 117 0.0 0.0 0.00 0.00 0.00 89 1018.5
20260901055003 59 117 0.0 0.0 0.00 0.00 0.00 88 1018.6
20260901054504 59 117 0.0 0.0 0.00 0.00 0.00 89 1018.6
20260901054003 59 117 0.0 2.0 0.00 0.00 0.00 88 1018.7
20260901053504 59 117 0.0 2.0 0.00 0.00 0.00 88 1018.7
20260901053007 60 117 1.0 2.0 0.00 0.00 0.00 88 1018.7
20260901052502 60 226 0.0 0.0 0.00 0.00 0.00 88 1018.6
20260901052005 60 226 0.0 0.0 0.00 0.00 0.00 88 1018.6
20260901051505 60 226 0.0 0.0 0.00 0.00 0.00 88 1018.7
20260901051003 60 226 0.0 0.0 0.00 0.00 0.00 87 1018.8
20260901050504 60 226 0.0 0.0 0.00 0.00 0.00 87 1018.8
20260901050007 60 226 0.0 0.0 0.00 0.00 0.00 87 1018.8
20260901045505 60 226 0.0 0.0 0.00 0.00 0.00 87 1018.7
20260901045004 60 226 0.0 0.0 0.00 0.00 0.00 87 1018.7
20260901044507 60 226 0.0 0.0 0.00 0.00 0.00 87 1018.6